• In Latvia
  • List of Countries
  • For 7 days
  • Water Temperature
  • Satellite Maps
  • Weather Map
  • Weather Widgets
  • user-avatar
    Login

    Hourly Weather Adelaide

    Today, 23 November, Thursday

    Time Temperature Precipitation Wind Pressure Humidity
    00:00 +24°C° 0.1 mm 2 mps 753 mmHg 64%
    01:00 +24°C° 0.3 mm 2 mps 752 mmHg 64%
    02:00 +23°C° 0.3 mm 2 mps 752 mmHg 65%
    03:00 +23°C° 0 mm 1 mps 752 mmHg 66%
    04:00 +23°C° 0 mm 1 mps 752 mmHg 66%
    05:00 +23°C° 0 mm 2 mps 753 mmHg 66%
    06:00 +23°C° 0 mm 2 mps 753 mmHg 65%
    07:00 +25°C° 0 mm 2 mps 753 mmHg 59%
    08:00 +27°C° 0 mm 1 mps 753 mmHg 52%
    09:00 +28°C° 0 mm 1 mps 753 mmHg 46%
    10:00 +29°C° 0.3 mm 2 mps 753 mmHg 44%
    11:00 +30°C° 0.3 mm 3 mps 753 mmHg 43%
    12:00 +30°C° 0.3 mm 4 mps 753 mmHg 41%
    13:00 +28°C° 0.7 mm 4 mps 752 mmHg 49%
    14:00 +27°C° 0.7 mm 4 mps 752 mmHg 57%
    15:00 +25°C° 0.7 mm 5 mps 752 mmHg 65%
    16:00 +23°C° 1.3 mm 4 mps 752 mmHg 69%
    17:00 +22°C° 1.3 mm 3 mps 753 mmHg 73%
    18:00 +21°C° 1.3 mm 2 mps 753 mmHg 78%
    19:00 +21°C° 0.4 mm 2 mps 753 mmHg 79%
    20:00 +21°C° 0.4 mm 2 mps 754 mmHg 80%
    21:00 +20°C° 0.4 mm 3 mps 754 mmHg 81%
    22:00 +20°C° 0 mm 3 mps 754 mmHg 82%
    23:00 +20°C° 0 mm 3 mps 754 mmHg 82%

    Tomorrow, 24 November, Friday

    Time Temperature Precipitation Wind Pressure Humidity
    00:00 +20°C° 0 mm 3 mps 754 mmHg 83%
    01:00 +19°C° 0 mm 3 mps 754 mmHg 84%
    02:00 +19°C° 0 mm 3 mps 753 mmHg 85%
    03:00 +19°C° 0 mm 2 mps 753 mmHg 85%
    04:00 +19°C° 0 mm 3 mps 754 mmHg 82%
    05:00 +20°C° 0 mm 3 mps 754 mmHg 79%
    06:00 +21°C° 0 mm 3 mps 755 mmHg 76%
    07:00 +24°C° 0 mm 3 mps 755 mmHg 68%
    08:00 +26°C° 0 mm 3 mps 755 mmHg 59%
    09:00 +28°C° 0 mm 3 mps 755 mmHg 51%
    10:00 +28°C° 0.3 mm 4 mps 755 mmHg 51%
    11:00 +28°C° 0.3 mm 4 mps 754 mmHg 51%
    12:00 +28°C° 0.3 mm 4 mps 754 mmHg 50%
    13:00 +28°C° 0.3 mm 4 mps 754 mmHg 52%
    14:00 +27°C° 0.3 mm 4 mps 754 mmHg 54%
    15:00 +27°C° 0.3 mm 4 mps 753 mmHg 56%
    16:00 +26°C° 0.5 mm 4 mps 754 mmHg 60%
    17:00 +25°C° 0.5 mm 4 mps 754 mmHg 65%
    18:00 +24°C° 0.5 mm 3 mps 754 mmHg 70%
    19:00 +22°C° 0 mm 3 mps 754 mmHg 73%
    20:00 +21°C° 0 mm 3 mps 754 mmHg 77%
    21:00 +20°C° 0 mm 3 mps 755 mmHg 81%
    22:00 +20°C° 0 mm 3 mps 754 mmHg 83%
    23:00 +19°C° 0 mm 3 mps 754 mmHg 85%

    Day after tomorrow, 25 November, Saturday

    Time Temperature Precipitation Wind Pressure Humidity
    00:00 +19°C° 0 mm 3 mps 754 mmHg 87%
    01:00 +19°C° 0 mm 2 mps 754 mmHg 88%
    02:00 +19°C° 0 mm 2 mps 754 mmHg 89%
    03:00 +18°C° 0 mm 2 mps 753 mmHg 90%
    04:00 +19°C° 0 mm 2 mps 754 mmHg 89%
    05:00 +19°C° 0 mm 2 mps 754 mmHg 87%
    06:00 +19°C° 0 mm 2 mps 754 mmHg 86%
    07:00 +21°C° 0.1 mm 2 mps 754 mmHg 80%
    08:00 +23°C° 0.1 mm 2 mps 755 mmHg 74%
    09:00 +24°C° 0.1 mm 3 mps 755 mmHg 67%
    10:00 +25°C° 0.2 mm 3 mps 754 mmHg 64%
    11:00 +26°C° 0.2 mm 3 mps 754 mmHg 61%
    12:00 +26°C° 0.2 mm 4 mps 754 mmHg 58%
    13:00 +26°C° 0 mm 4 mps 754 mmHg 57%
    14:00 +26°C° 0 mm 4 mps 754 mmHg 56%
    15:00 +26°C° 0 mm 5 mps 753 mmHg 56%
    16:00 +25°C° 0 mm 4 mps 754 mmHg 61%
    17:00 +23°C° 0 mm 4 mps 754 mmHg 66%
    18:00 +22°C° 0 mm 3 mps 755 mmHg 71%
    19:00 +21°C° 0 mm 3 mps 755 mmHg 76%
    20:00 +20°C° 0 mm 3 mps 755 mmHg 80%
    21:00 +19°C° 0 mm 3 mps 756 mmHg 85%
    22:00 +18°C° 0 mm 2 mps 756 mmHg 86%
    23:00 +18°C° 0 mm 2 mps 755 mmHg 88%

    26 November, Sunday

    Time Temperature Precipitation Wind Pressure Humidity
    00:00 +18°C° 0 mm 2 mps 755 mmHg 90%
    01:00 +17°C° 0 mm 2 mps 755 mmHg 90%
    02:00 +17°C° 0 mm 2 mps 755 mmHg 91%
    03:00 +17°C° 0 mm 2 mps 755 mmHg 91%
    04:00 +17°C° 0 mm 2 mps 755 mmHg 88%
    05:00 +18°C° 0 mm 2 mps 756 mmHg 86%
    06:00 +18°C° 0 mm 2 mps 756 mmHg 83%
    07:00 +19°C° 0 mm 2 mps 756 mmHg 77%
    08:00 +20°C° 0 mm 3 mps 757 mmHg 71%
    09:00 +22°C° 0 mm 3 mps 757 mmHg 64%
    10:00 +22°C° 0 mm 3 mps 757 mmHg 60%
    11:00 +23°C° 0 mm 4 mps 757 mmHg 56%
    12:00 +25°C° 0 mm 4 mps 756 mmHg 51%
    13:00 +25°C° 0 mm 5 mps 756 mmHg 51%
    14:00 +25°C° 0 mm 5 mps 756 mmHg 50%
    15:00 +25°C° 0 mm 5 mps 756 mmHg 50%
    16:00 +23°C° 0 mm 5 mps 757 mmHg 54%
    17:00 +21°C° 0 mm 6 mps 757 mmHg 58%
    18:00 +20°C° 0 mm 6 mps 758 mmHg 63%
    19:00 +19°C° 0 mm 5 mps 758 mmHg 68%
    20:00 +17°C° 0 mm 5 mps 758 mmHg 73%
    21:00 +15°C° 0 mm 5 mps 759 mmHg 78%
    22:00 +15°C° 0 mm 4 mps 759 mmHg 79%
    23:00 +14°C° 0 mm 4 mps 758 mmHg 81%

    27 November, Monday

    Time Temperature Precipitation Wind Pressure Humidity
    00:00 +14°C° 0 mm 4 mps 758 mmHg 83%
    01:00 +13°C° 0 mm 4 mps 758 mmHg 83%
    02:00 +13°C° 0 mm 4 mps 758 mmHg 84%
    03:00 +13°C° 0 mm 4 mps 758 mmHg 84%
    04:00 +13°C° 0 mm 4 mps 758 mmHg 81%
    05:00 +14°C° 0 mm 4 mps 758 mmHg 78%
    06:00 +14°C° 0 mm 4 mps 759 mmHg 75%
    07:00 +17°C° 0 mm 3 mps 759 mmHg 66%
    08:00 +19°C° 0 mm 3 mps 759 mmHg 57%
    09:00 +21°C° 0 mm 3 mps 759 mmHg 48%
    10:00 +22°C° 0 mm 3 mps 759 mmHg 44%
    11:00 +25°C° 0 mm 3 mps 758 mmHg 39%
    12:00 +26°C° 0 mm 4 mps 758 mmHg 35%
    13:00 +26°C° 0 mm 4 mps 758 mmHg 36%
    14:00 +26°C° 0 mm 5 mps 757 mmHg 37%
    15:00 +26°C° 0 mm 6 mps 757 mmHg 38%
    16:00 +24°C° 0 mm 6 mps 757 mmHg 44%
    17:00 +22°C° 0 mm 6 mps 757 mmHg 49%
    18:00 +21°C° 0 mm 6 mps 758 mmHg 55%
    19:00 +19°C° 0 mm 6 mps 758 mmHg 61%
    20:00 +17°C° 0 mm 5 mps 758 mmHg 66%
    21:00 +16°C° 0 mm 5 mps 759 mmHg 72%
    22:00 +16°C° 0 mm 5 mps 758 mmHg 75%
    23:00 +16°C° 0 mm 5 mps 758 mmHg 78%

    28 November, Tuesday

    Time Temperature Precipitation Wind Pressure Humidity
    00:00 +17°C° 0 mm 4 mps 758 mmHg 81%
    01:00 +15°C° 0 mm 4 mps 758 mmHg 81%
    02:00 +15°C° 0 mm 4 mps 758 mmHg 81%
    03:00 +15°C° 0 mm 4 mps 757 mmHg 82%
    04:00 +17°C° 0 mm 4 mps 758 mmHg 77%
    05:00 +18°C° 0 mm 4 mps 758 mmHg 73%
    06:00 +18°C° 0 mm 4 mps 758 mmHg 69%
    07:00 +21°C° 0 mm 4 mps 758 mmHg 60%
    08:00 +23°C° 0 mm 4 mps 759 mmHg 51%
    09:00 +27°C° 0 mm 3 mps 759 mmHg 42%
    10:00 +28°C° 0 mm 3 mps 758 mmHg 36%
    11:00 +30°C° 0 mm 3 mps 758 mmHg 30%
    12:00 +32°C° 0 mm 2 mps 757 mmHg 25%
    13:00 +33°C° 0 mm 3 mps 757 mmHg 24%
    14:00 +34°C° 0 mm 3 mps 757 mmHg 23%
    15:00 +34°C° 0 mm 4 mps 756 mmHg 22%
    16:00 +33°C° 0 mm 4 mps 756 mmHg 26%
    17:00 +30°C° 0 mm 4 mps 757 mmHg 29%
    18:00 +29°C° 0 mm 5 mps 757 mmHg 33%
    19:00 +27°C° 0 mm 4 mps 757 mmHg 37%
    20:00 +25°C° 0 mm 4 mps 757 mmHg 42%
    21:00 +23°C° 0 mm 4 mps 757 mmHg 47%
    22:00 +22°C° 0 mm 4 mps 757 mmHg 46%
    23:00 +22°C° 0 mm 4 mps 757 mmHg 45%
    Show more